Regional Weather Roundup
Issued by NWS

Home | Current Version | Previous Version | Graphics & Text | Print | Product List | Glossary On
Versions: 1 2 3 4 5 6 7 8 9 10 11 12 13 14 15 16 17 18 19 20 21 22 23 24 25 26 27 28 29 30 31 32 33 34 35 36 37 38 39 40 41 42 43 44 45 46 47 48 49 50
712
ASUS43 KLOT 221404
RWRIL

ILLINOIS REGIONAL WEATHER ROUNDUP
NATIONAL WEATHER SERVICE CHICAGO/ROMEOVILLE IL
900 AM CDT TUE AUG 22 2017

NOTE: "FAIR" INDICATES FEW OR NO CLOUDS BELOW 12,000 FEET WITH NO
SIGNIFICANT WEATHER AND/OR OBSTRUCTIONS TO VISIBILITY.

* THESE STATIONS ARE NOT UNDER NWS QUALITY CONTROL. THEY ALSO MAY NOT
  REPORT WEATHER SUCH AS PRECIPITATION OR FOG.

ILZ001-002-007-009-015-016-024-221500-
NORTHWEST ILLINOIS

CITY           SKY/WX    TMP DP  RH WIND       PRES   REMARKS
MOLINE         CLOUDY    69  63  81 W16G22    29.95R
STERLING*      CLOUDY    69  65  86 W14       29.92S
SAVANNA*       CLOUDY    68  64  86 W7        29.93S
$$

ILZ003-004-008-010-011-017-018-221500-
NORTH CENTRAL ILLINOIS

CITY           SKY/WX    TMP DP  RH WIND       PRES   REMARKS
ROCKFORD       CLOUDY    69  63  81 W9        29.91S
FREEPORT*      CLOUDY    66  63  88 W9        29.94R
ROCHELLE*      CLOUDY    69  66  90 W12       29.91S
$$

ILZ005-006-012>014-019>023-221500-
NORTHEAST ILLINOIS

CITY           SKY/WX    TMP DP  RH WIND       PRES   REMARKS
CHICAGO-OHARE  CLOUDY    72  66  81 W13       29.86F
CHICAGO-MIDWAY CLOUDY    72  68  87 W13       29.87S
AURORA         CLOUDY    70  68  93 W10       29.90S
LANSING*       CLOUDY    71  66  85 SW13      29.89F
JOLIET*        CLOUDY    72  70  93 SW8       29.89F
WAUKEGAN       PTSUNNY   70  64  81 W9G18     29.85S
DUPAGE AIRPORT CLOUDY    70  68  93 W9        29.88S
KANKAKEE*      CLOUDY    70  69  98 SW6       29.91F
WHEELING       PTSUNNY   72  66  81 W12       29.88S
MORRIS*        CLOUDY    70  68  93 W8        29.89F
NORTHERLY ISL    N/A     72  66  81 SW8         N/A
$$

LMZ740>746-221500-
SOUTHERN LAKE MICHIGAN

STATION/POSITION SKY/WX   TEMP    WIND        PRES    VSBY  WAVE
                          AIR SEA DIR/SP/G                  HT/PER
                          (F)     (DEG/KT/KT) (MB)    (MI)  (FT/S)
SOUTHERN BUOY              72 71  290/ 17/ 19 1009.4          3/ 6
WILMETTE HARBOR            72 74  260/ 14/ 19   N/A           1/ 3
HARRISON CRIB              72     250/ 18/ 21   N/A
CALUMET HARBOR             71     230/  9/ 13 1011.1F
BURNS HARBOR               71     220/ 11/ 16 1012.2F
MICHIGAN CITY              71     210/ 16/ 17   N/A
MICHIGAN CITY 6N           72 74  240/ 16/ 19   N/A           4/ 4
ST. JOSEPH                 72 73  260/ 17/ 23 1010.8F         5/ 5
$$

ILZ025>027-034>036-040-047-049-050-058-095>099-221500-
WEST-CENTRAL ILLINOIS

CITY           SKY/WX    TMP DP  RH WIND       PRES   REMARKS
QUINCY         CLOUDY    67  65  93 W7        30.00R
GALESBURG*     CLOUDY    68  65  92 W9        29.97S
MACOMB*        CLOUDY    68  65  91 NW10      29.99S
JACKSONVILLE*  CLOUDY    68  67  97 CALM      29.98R
$$

ILZ028>032-037-038-041>044-048-051>054-059>061-221500-
CENTRAL ILLINOIS

CITY           SKY/WX    TMP DP  RH WIND       PRES   REMARKS
BLOOMINGTON    CLOUDY    68  67  96 W8        29.95S
DECATUR        CLOUDY    70  69  97 W6        29.95R
PEORIA         CLOUDY    70  68  93 NW7       29.94S
LACON*         CLOUDY    69  68  96 W3        29.92S
LINCOLN*       CLOUDY    70  69  99 W3        29.96R
SPRINGFIELD    CLOUDY    71  70  96 W9        29.97R
TAYLORVILLE    NOT AVBL
$$

ILZ033-039-045-046-055>057-062-063-221500-
EAST-CENTRAL ILLINOIS

CITY           SKY/WX    TMP DP  RH WIND       PRES   REMARKS
CHAMPAIGN      LGT RAIN  70  69  97 S6        29.95R
RANTOUL*       CLOUDY    71  70  98 S6        29.93R
MATTOON        LGT RAIN  71  71 100 S7        29.93F
PARIS*         DRIZZLE   71  70  98 S6        29.95S
$$

ILZ079-100>102-221500-
SOUTHWEST ILLINOIS

CITY           SKY/WX    TMP DP  RH WIND       PRES   REMARKS
ALTON          LGT RAIN  70  70 100 CALM      29.97R
BELLEVILLE     LGT RAIN  71  70  95 S6        29.97F
CAHOKIA*       LGT RAIN  73  70  90 CALM      29.96F
SPARTA*        CLOUDY    73  69  86 CALM      30.01R
$$

ILZ064>066-069>071-074>076-080>082-084>086-088>090-092>094-221500-
SOUTH-CENTRAL ILLINOIS

CITY           SKY/WX    TMP DP  RH WIND       PRES   REMARKS
CARBONDALE     CLOUDY    79  76  90 W8        29.98S HX  83
CAIRO*         CLOUDY    79  75  89 SW7       30.01S HX  83
EFFINGHAM*     DRIZZLE   71  71 100 SE5       29.96F
MARION         PTSUNNY   82  79  89 SW9       29.99S HX  93
MT. VERNON       N/A     73  71  93 CALM      29.99S
CENTRALIA*     PTSUNNY   74  72  95 S5        29.97F
SALEM*         CLOUDY    73  71  93 SE3       29.97F
METROPOLIS*    CLOUDY    82  76  81 SW7       30.01S HX  88
$$

ILZ067-068-072-073-078-083-087-091-221500-
SOUTHEAST ILLINOIS

CITY           SKY/WX    TMP DP  RH WIND       PRES   REMARKS
LAWRENCEVILLE  CLOUDY    75  71  87 CALM      29.97F
FLORA*         CLOUDY    74  72  94 S3        29.98S THUNDER
FAIRFIELD*     CLOUDY    72  72 100 CALM      29.98R
HARRISBURG*    CLOUDY    82  76  82 SW8       29.98S HX  88
ROBINSON*      CLOUDY    72  70  95 CALM      29.97S
CARMI*         CLOUDY    75  72  90 N8G17     29.98R
$$

ABBREVIATIONS USED IN REMARKS
   TC - TEMPERATURE IN CELSIUS
  WCI - WIND CHILL INDEX
   HX - HEAT INDEX
  VSB - VISIBILITY
$$





USA.gov is the U.S. government's official web portal to all federal, state and local government web resources and services.